Starlink 32889

operational
NORAD ID: 62961 Int'l Des: 2025-029 Owner: SPXS Country: US Constellation: starlink
LEOCIRCULAR

About Starlink 32889

Description loading...

Live Position

Loading 3D Globe...

Upcoming Passes

Altitude History

Altitude vs Time

uPlot chart will show altitude changes over time

Two-Line Element Set

1 62961U 25029P 25306.45862734 .00036145 00000-0 12258-2 0 9996
2 62961 53.1574 103.7402 0000701 327.9064 32.1894 15.30220544 41836
Epoch: Nov 2, 2025 • Age: 8 hours

Current Status

Altitude 477.4 km
Velocity 7.63 km/s
Sub-Earth Point 30.77°N, 78.39°W
Launch Date Feb 11, 2025
Age 0.7 years
Type internet

Technical Details

Classification Payload
Mass 730.00 kg
Dry Mass 700.00 kg
Total Mass 730.00 kg
Length 0.30 m
Diameter 4.10 m
Span 29.00 m
Shape Box + pan
Manufacturer SPXS
Bus Type Starlink V2M
Phase Status In Orbit
Owner/State SPXS/US

Large Constellations

Loading constellations...